TG5ALY-15 Weather Reports


time (UTC)temp
C
wind
direction
speed
KPH
gust
KPH
rain 1hr
cm
rain 24hr
cm
rain mn
cm
humidity
%
barometer
mb
20260507075317 13 18 3.2 3.2 0.00 0.00 0.00 92 1030.4
20260507073317 13 18 3.2 3.2 0.00 0.00 0.00 90 1030.8
20260507071317 14 18 0.0 0.0 0.00 0.00 0.00 92 1030.8
20260507065316 13 18 3.2 3.2 0.00 0.00 0.00 91 1030.8
20260507063312 13 18 3.2 3.2 0.00 0.00 0.00 92 1030.8
20260507061307 14 18 0.0 0.0 0.00 0.00 0.00 92 1031.3
20260507055306 14 18 1.6 1.6 0.00 0.00 0.00 91 1031.7
20260507053305 14 18 3.2 3.2 0.00 0.00 0.00 88 1032.1
20260507051301 14 18 0.0 0.0 0.00 0.00 0.00 93 1031.7
20260507045259 14 18 0.0 0.0 0.00 0.00 0.00 94 1031.7
20260507043258 15 18 0.0 0.0 0.00 0.00 0.00 93 1031.7
20260507041255 15 18 0.0 0.0 0.00 0.00 0.00 93 1031.7
20260507035252 15 18 0.0 0.0 0.00 0.00 0.00 92 1031.7
20260507033248 15 18 0.0 0.0 0.00 0.00 0.00 93 1031.3
20260507031247 15 18 0.0 0.0 0.00 0.00 0.00 92 1030.8
20260507025246 16 18 3.2 3.2 0.00 0.00 0.00 92 1030.8
20260507023246 16 18 3.2 3.2 0.00 0.00 0.00 92 1030.8
20260507021242 16 18 0.0 0.0 0.00 0.00 0.00 91 1030.8
20260507015237 16 18 0.0 0.0 0.00 0.00 0.00 92 1030.4
20260507013235 16 18 3.2 3.2 0.00 0.00 0.00 91 1030.8
20260507011234 16 336 8.0 9.7 0.00 0.00 0.00 90 1030.4
20260507005228 17 324 0.0 0.0 0.00 0.00 0.00 88 1029.9
20260507003226 17 324 0.0 0.0 0.00 0.00 0.00 86 1029.9
20260507001224 17 324 9.7 9.7 0.00 0.00 0.00 84 1029.5
20260506235220 18 270 4.8 4.8 0.00 0.00 0.00 79 1029.2
20260506233220 19 126 3.2 3.2 0.00 0.00 0.00 75 1028.7
20260506231220 19 138 9.7 9.7 0.00 0.00 0.00 75 1028.7
20260506225218 20 138 9.7 11.3 0.00 0.00 0.00 73 1028.7
20260506223216 22 156 3.2 3.2 0.00 0.00 0.00 60 1028.3
20260506221210 22 321 1.6 1.6 0.00 0.00 0.00 63 1027.9
20260506215206 21 282 1.6 1.6 0.00 0.00 0.00 63 1028.3
20260506213202 20 144 6.4 8.0 0.00 0.00 0.00 68 1028.3
20260506211158 21 138 11.3 11.3 0.00 0.00 0.00 68 1028.3
20260506205155 22 165 17.7 19.3 0.00 0.00 0.00 62 1028.3
20260506203151 22 138 8.0 9.7 0.00 0.00 0.00 61 1028.3
20260506201150 23 179 14.5 17.7 0.00 0.00 0.00 56 1028.3
20260506195148 24 84 9.7 9.7 0.00 0.00 0.00 49 1028.7
20260506193143 25 60 3.2 3.2 0.00 0.00 0.00 46 1029.2
20260506191141 25 78 12.9 14.5 0.00 0.00 0.00 23 1029.2
20260506185140 25 108 9.7 11.3 0.00 0.00 0.00 25 1029.5
20260506183139 24 13 8.0 9.7 0.00 0.00 0.00 27 1029.9
20260506181134 23 60 8.0 9.7 0.00 0.00 0.00 28 1030.4
20260506175132 24 1 8.0 9.7 0.00 0.00 0.00 27 1030.4
20260506173127 23 343 11.3 12.9 0.00 0.00 0.00 25 1030.8
20260506171122 23 325 11.3 11.3 0.00 0.00 0.00 24 1030.8
20260506165122 23 120 11.3 12.9 0.00 0.00 0.00 24 1030.8
20260506163119 23 318 11.3 11.3 0.00 0.00 0.00 24 1030.8
20260506161116 22 351 16.1 17.7 0.00 0.00 0.00 29 1030.8
20260506155116 19 223 4.8 6.4 0.00 0.00 0.00 65 1031.7
20260506152433 18 234 0.0 0.0 0.00 0.00 0.00 66 1031.3
20260506150427 18 233 3.2 3.2 0.00 0.00 0.00 70 1031.7
20260506144426 17 78 3.2 3.2 0.00 0.00 0.00 72 1031.7
20260506142423 16 78 3.2 3.2 0.00 0.00 0.00 79 1031.7
20260506140419 15 78 3.2 3.2 0.00 0.00 0.00 80 1031.7
20260506134417 14 78 1.6 1.6 0.00 0.00 0.00 82 1031.3
20260506132416 13 78 0.0 0.0 0.00 0.00 0.00 85 1031.7
20260506130415 11 78 3.2 3.2 0.00 0.00 0.00 89 1031.3
20260506124412 12 78 0.0 0.0 0.00 0.00 0.00 86 1030.8
20260506122408 10 78 0.0 0.0 0.00 0.00 0.00 94 1030.8
20260506120403 10 78 0.0 0.0 0.00 0.00 0.00 94 1030.8
20260506114359 10 78 0.0 0.0 0.00 0.00 0.00 94 1030.4
20260506112354 10 78 0.0 0.0 0.00 0.00 0.00 94 1030.4
20260506110350 10 78 0.0 0.0 0.00 0.00 0.00 93 1030.4
20260506104344 11 78 3.2 3.2 0.00 0.00 0.00 93 1030.4
20260506102340 11 78 0.0 0.0 0.00 0.00 0.00 92 1029.9
20260506100335 11 78 3.2 3.2 0.00 0.00 0.00 92 1029.9
20260506094331 11 78 0.0 0.0 0.00 0.00 0.00 91 1029.9
20260506092327 11 78 3.2 3.2 0.00 0.00 0.00 89 1030.4
20260506090322 11 78 3.2 3.2 0.00 0.00 0.00 91 1030.4
20260506084320 11 78 0.0 0.0 0.00 0.00 0.00 91 1030.4
20260506082319 11 78 3.2 3.2 0.00 0.00 0.00 89 1030.4